Simultaneous Nadir Overpasses (SNOs) Predictions

Prediction of SNOs between NOAA-20 and METOP-B Satellite Orbit:

Table of predicted SNOs for the next 14.0 days since TLE Epoch: 9/4/2020
Index Date (NOAA-20) Time (NOAA-20) Lat,Lon (NOAA-20) SZA (NOAA-20 ) Date (METOP-B) Time (METOP-B) Lat,Lon (METOP-B) SZA (METOP-B ) Distance(km) Time Diff (sec)
1 09/17/2020 13:31:33 73.46, -32.64 71.61 09/17/2020 13:32:40 73.42, -29.99 71.47 84.16 67
2 09/17/2020 14:22:16 -73.40, 134.80 108.44 09/17/2020 14:23:24 -73.33, 137.12 108.61 74.15 68
3 09/17/2020 15:12:57 73.16, -57.36 71.32 09/17/2020 15:14:08 73.10, -56.05 71.20 43.01 71
4 09/17/2020 16:03:40 -73.11, 110.08 108.73 09/17/2020 16:04:51 -73.05, 111.18 108.84 36.16 71
5 09/17/2020 16:54:21 72.87, -82.10 71.03 09/17/2020 16:55:35 72.82, -81.98 70.97 6.60 74
6 09/17/2020 17:45:04 -72.81, 85.33 109.02 09/17/2020 17:46:17 -72.83, 85.36 109.02 2.33 73
7 09/17/2020 18:35:49 72.82,-107.39 71.01 09/17/2020 18:36:56 72.80,-107.37 70.97 3.07 67
8 09/17/2020 19:26:33 -72.82, 59.94 108.99 09/17/2020 19:27:38 -72.81, 59.98 109.01 1.86 65
9 09/17/2020 20:17:18 72.78,-132.67 70.99 09/17/2020 20:18:18 72.77,-132.75 70.98 2.81 60
10 09/17/2020 21:08:02 -72.78, 34.65 109.01 09/17/2020 21:09:00 -72.78, 34.59 109.01 2.34 58
11 09/17/2020 21:58:48 72.79,-158.06 71.03 09/17/2020 21:59:39 72.80,-158.04 71.03 1.54 51
12 09/17/2020 22:49:32 -72.78, 9.26 108.97 09/17/2020 22:50:21 -72.81, 9.30 108.95 3.14 49
13 09/17/2020 23:40:18 72.80, 176.55 71.06 09/17/2020 23:41:01 72.78, 176.57 71.03 2.40 43
14 09/18/2020 00:31:02 -72.79, -16.13 108.94 09/18/2020 00:31:43 -72.79, -16.09 108.95 1.47 41
15 09/18/2020 01:21:47 72.75, 151.26 71.04 09/18/2020 01:22:23 72.75, 151.18 71.04 2.55 36
16 09/18/2020 02:12:31 -72.75, -41.41 108.96 09/18/2020 02:13:05 -72.76, -41.47 108.94 2.58 34
17 09/18/2020 03:03:17 72.76, 125.87 71.08 09/18/2020 03:03:44 72.78, 125.90 71.09 2.26 27
